Regional Weather Roundup
Issued by NWS State College, PA

Home | Current Version | Previous Version | Graphics & Text | Print | Product List | Glossary On
Versions: 1 2 3 4 5 6 7 8 9 10 11 12 13 14 15 16 17 18 19 20 21 22 23 24 25 26 27 28 29 30 31 32 33 34 35 36 37 38 39 40 41 42 43 44 45 46 47 48 49 50
625
ASUS41 KCTP 262010
RWRCTP

REGIONAL WEATHER ROUNDUP
NATIONAL WEATHER SERVICE STATE COLLEGE PA
300 PM EST SUN FEB 26 2017

Note: "fair" indicates few or no clouds below 12,000 feet with no
significant weather and/or obstructions to visibility.

* = STATION THAT DOES NOT REPORT PRECIPITATION /E.G. RAIN...SNOW...ETC/
    THUNDER OR FOG.

PAZ002>004-007>009-013>016-020>023-029>032-262100-
WESTERN PENNSYLVANIA

CITY           SKY/WX    TMP DP  RH WIND       PRES   REMARKS
ERIE           SUNNY     35  21  56 SW15      30.10F
MEADVILLE      MOSUNNY   31  17  56 SW9       30.08F
FRANKLIN*      SUNNY     34  16  47 W10       30.11R
NEW CASTLE     FAIR      36  17  46 SW10G18   30.13S
BEAVER COUNTY  SUNNY     37  14  38 W10G17    30.13R
BUTLER*        SUNNY     37  16  41 SW13      30.13S
PITTSBURGH INT MOSUNNY   37  16  42 W10       30.13S
PITTSBURGH     SUNNY     37  15  40 SW13      30.12F
INDIANA*       MOSUNNY   34  18  51 W12       30.14S
LATROBE        MOSUNNY   36  18  48 W14       30.15R
WASHINGTON CO* SUNNY     39  16  38 SW10      30.15F
$$

PAZ004>006-010>012-017>019-024>028-033>037-041-042-045-046-049>053-262100-
CENTRAL PENNSYLVANIA

CITY           SKY/WX    TMP DP  RH WIND       PRES   REMARKS
BRADFORD       MOSUNNY   27  16  63 SW8       30.03R
DUBOIS         MOSUNNY   30  16  56 W13       30.07S
CLEARFIELD       N/A    N/A N/A N/A MISG      30.10R
JOHNSTOWN      PTSUNNY   30  18  60 W10G21    30.06R
ALTOONA        CLOUDY    34  18  52 W14G24    30.11R
STATE COLLEGE  PTSUNNY   36  16  44 W16       30.10R
WILLIAMSPORT   PTSUNNY   37  14  38 W12       30.09R
SELINSGROVE    PTSUNNY   38  18  44 NW10G21   30.12R
FT INDIANTOWN  PTSUNNY   39  14  35 W13G29    30.11R
CAPITAL CITY   CLOUDY    41  17  38 W15G22    30.13R
HARRISBURG     PTSUNNY   40  20  44 NW13      30.13R
YORK           PTSUNNY   42  20  41 NW16      30.12R
$$

PAZ038>040-043-044-047-048-054-055-060>062-067>071-262100-
EASTERN PENNSYLVANIA

CITY           SKY/WX    TMP DP  RH WIND       PRES   REMARKS
SCRANTON       CLOUDY    36  18  48 N13       30.03R
MOUNT POCONO   PTSUNNY   30  14  51 W13       29.97R
ALLENTOWN      PTSUNNY   38  17  42 W16G22    30.08R
QUAKERTOWN*    PTCLDY    37  18  44 NW9G16    30.09R
READING        MOSUNNY   41  18  39 W13G23    30.09R
LANCASTER      PTSUNNY   42  21  43 W15       30.11R
COATESVILLE    PTCLDY    39  18  41 W15       30.11R
POTTSTOWN      MOSUNNY   41  17  38 W9        30.11R
BLUE BELL      SUNNY     39  19  45 W10G17    30.09R
DOYLESTOWN     MOSUNNY   40  18  41 NW13G20   30.07S
WILLOW GROVE   NOT AVBL
NORTH PHILA    MOSUNNY   44  17  33 W14G21    30.10R
PHILADELPHIA   MOSUNNY   42  14  32 W20       30.11R
$$




USA.gov is the U.S. government's official web portal to all federal, state and local government web resources and services.